Regional Weather Roundup
Issued by NWS

Home | Current Version | Previous Version | Text Only | Print | Product List | Glossary On
Versions: 1 2 3 4 5 6 7 8 9 10 11 12 13 14 15 16 17 18 19 20 21 22 23 24 25 26 27 28 29 30 31 32 33 34 35 36 37 38 39 40 41 42 43 44 45 46 47 48 49 50
000
ASUS46 KLOX 311712
RWRCA

SOUTHERN CALIFORNIA WEATHER ROUNDUP
NATIONAL WEATHER SERVICE OXNARD CALIFORNIA
900 AM PST SAT JAN 31 2015

NOTE: "FAIR" INDICATES FEW OR NO CLOUDS BELOW 12,000 FEET WITH NO
SIGNIFICANT WEATHER AND/OR OBSTRUCTIONS TO VISIBILITY.

  -  STATIONS PRECEEDED BY AN ASTERISK (*) ARE NOT NWS OR FAA
     STATIONS AND ARE NOT SUBJECT TO NWS AND FAA QUALITY CONTROL.

CAZ041-042-087-311800-
LA AND ORANGE COUNTY COASTAL AREAS


CITY           SKY/WX    TMP DP  RH WIND       PRES   REMARKS
L.A. DOWNTOWN  MOSUNNY   61  54  77 CALM      29.90R
L.A. AIRPORT   PTSUNNY   60  55  83 E5        29.91R
LONG BEACH     MOSUNNY   62  56  80 E3        29.91R

CITY           SKY/WX    TMP DP  RH WIND       PRES   REMARKS
AVALON           N/A    N/A N/A N/A MISG        N/A
FULLERTON      SUNNY     62  52  69 CALM      29.91R
HAWTHORNE      SUNNY     62  55  77 CALM      29.91R
*LEO CARRILLO    N/A     68  54  61 CALM        N/A
*LOS ALAMITOS  MOSUNNY   61  56  84 CALM      29.91R
*REDONDO BEACH   N/A     57  55  93 CALM      29.92R
SANTA ANA      CLOUDY    63  54  72 CALM      29.91R
STA MONICA APT MOSUNNY   60  54  80 NE5       29.91R HAZE
*STA MON PIER    N/A     64  58  82 NE1       29.91R
TORRANCE       MOSUNNY   61  59  94 CALM      29.92
*UCLA            N/A     59  52  77 NE6       29.89R

$$

CAZ547-548-048-311800-
LA COUNTY VALLEYS AND INLAND EMPIRE


CITY           SKY/WX    TMP DP  RH WIND       PRES   REMARKS
BURBANK        MOSUNNY   57  52  83 CALM      29.91R
VAN NUYS       MOSUNNY   56  52  86 CALM      29.91R

CITY           SKY/WX    TMP DP  RH WIND       PRES   REMARKS
CORONA AIRPORT MOSUNNY   56  53  89 CALM      29.93R
CHINO          PTSUNNY   56  52  86 CALM      29.93R
*CLAREMONT       N/A     55  50  84 SW2         N/A
MARCH AFB      PTSUNNY   51  51 100 E3        29.92R FOG
*NORTHRIDGE      N/A     55  50  82 SE2         N/A
ONTARIO        PTSUNNY   56  51  84 VRB5      29.92R
*PASADENA        N/A     59  55  88 E2          N/A
RIVERSIDE      PTSUNNY   54  51  90 CALM      29.92R
SAN BERNARDINO PTSUNNY   52  48  87 CALM      29.93R
*SAN GABRIEL     N/A     61  32  33 CALM      29.87
*SAN RAFAEL HI   N/A     52  52 100 CALM        N/A
*SAUGUS          N/A     47  44  90 CALM        N/A
*WHITEMAN AP   MOSUNNY   55  50  82 CALM      29.94R
*WHITTIER HILL   N/A     61  58  91 S2          N/A
*WOODLAND HILL   N/A     59  52  77 SW1         N/A

$$

CAZ054-055-311800-
LA AND SAN BERNARDINO COUNTY MOUNTAINS


CITY           SKY/WX    TMP DP  RH WIND       PRES   REMARKS
*ACTON           N/A     52  41  66 N10         N/A
*BIG BEAR AIRP LGT SNOW  32  32 100 NE7       29.96R WCI  26
*BIG PINES       N/A     33  33  98 CALM        N/A
MT WILSON NWS    N/A    N/A N/A N/A MISG        N/A
SANDBERG       MOSUNNY   50  35  56 NE9       29.97R

$$

CAZ028-029-059-060-099-311800-
ANTELOPE VALLEY AND SURROUNDING AREAS


CITY           SKY/WX    TMP DP  RH WIND       PRES   REMARKS
LANCASTER      SUNNY     50  44  80 NE5       29.97R
PALMDALE       SUNNY     49  42  77 NW3       29.97R
*POPPY PARK      N/A     54  41  61 N7          N/A

CITY           SKY/WX    TMP DP  RH WIND       PRES   REMARKS
29 PALMS       CLOUDY    53  45  74 NW14      30.00R
BARSTOW/DAGGET CLOUDY    54  47  77 CALM      29.95R
BISHOP         MOSUNNY   50  29  44 N21       30.08R
CHINA LAKE     MOSUNNY   57  39  51 CALM      29.95R
EDWARDS AFB    MOSUNNY   47  47  97 NW3       29.95R
MOJAVE         FAIR      50  39  66 CALM      29.97R
NEEDLES        PTSUNNY   58  49  72 N8        29.89R
VICTORVILLE    CLOUDY    48  43  81 W5        29.96R

$$

CAZ039-040-311800-
VENTURA AND SANTA BARBARA COUNTY COAST


CITY           SKY/WX    TMP DP  RH WIND       PRES   REMARKS
CAMARILLO      MOSUNNY   60  51  72 CALM      29.91R
NWS OXNARD       N/A     55  51  87 CALM      29.91R
OXNARD AIRPORT SUNNY     56  47  71 NE6       29.91R
*POINT MUGU    PTSUNNY   61  52  72 N6        29.92R
SBA APT/GOLETA MOSUNNY   60  52  74 NE5       29.91R
*SANTA BARBARA   N/A     60  54  80 CALM      29.99R
*VENTURA         N/A     54  49  84 CALM      29.96R

$$

CAZ044-045-311800-
VENTURA COUNTY VALLEYS


CITY           SKY/WX    TMP DP  RH WIND       PRES   REMARKS
*SIMI VALLEY     N/A     59  52  77 S3        29.89S
*OJAI            N/A     50  48  94 CALM      29.89R
*FILLMORE        N/A     54  49  82 CALM      29.82R

$$

CAZ053-311800-
VENTURA COUNTY MOUNTAINS


CITY           SKY/WX    TMP DP  RH WIND       PRES   REMARKS
*LOCKWOOD VLY    N/A     36  32  87 CALM        N/A
*ROSE VALLEY     N/A     41  43 100 MISG        N/A

$$

CAZ034-035-036-311800-
CENTRAL COAST AND SANTA YNEZ VALLEY


CITY           SKY/WX    TMP DP  RH WIND       PRES   REMARKS
SAN LUIS OBISP MOSUNNY   53  49  86 CALM      29.94R
SANTA MARIA    MOSUNNY   52  49  89 CALM      29.95R FOG

CITY           SKY/WX    TMP DP  RH WIND       PRES   REMARKS
*CAL POLY SLO    N/A     50  50 100 NE2G8       N/A
*LOMPOC        CLOUDY    54  46  76 E5        29.95R
*PISMO BEACH     N/A     53  52  95 NE1       29.95R
*SANTA YNEZ    CLOUDY    52  46  82 SE6       29.94R

$$

CAZ037-038-051-311800-
SAN LUIS OBISPO COUNTY INTERIOR AND CUYAMA VALLEY


CITY           SKY/WX    TMP DP  RH WIND       PRES   REMARKS
*CUYAMA          N/A     46  41  83 CALM      29.95R
PASO ROBLES    FOG       44  42  93 CALM      29.98R VSB<1/4

$$

CAZ032-033-061-311800-
SOUTHERN DESERTS


CITY           SKY/WX    TMP DP  RH WIND       PRES   REMARKS
BLYTHE         PTSUNNY   56  51  84 CALM      29.88R
IMPERIAL       PTSUNNY   60  52  74 NW3       29.87R
PALM SPRINGS   PTSUNNY   62  50  64 N5        29.91R
THERMAL        PTSUNNY   68  47  46 NW12      29.87R

$$

ELSEWHERE ACROSS THE WESTERN UNITED STATES AND MEXICO


CITY           SKY/WX    TMP DP  RH WIND       PRES   REMARKS
DENVER, CO     CLOUDY    34  26  72 NW7       29.90R WCI  28
GRAND CANYON,  PTSUNNY   41  36  82 NE5       29.93R
HONOLULU, HI   PTCLDY    64  63  94 CALM      30.01R
KAHULUI, MAUI  MOCLDY    66  63  88 SE3       30.01R
LAKE TAHOE, CA SUNNY     38  19  46 VRB6      30.15R WCI  33
LAS VEGAS, NV  CLOUDY    52  46  80 S8        29.91R
MAMMOTH LAKES, PTSUNNY   36  25  64 W14       30.14R WCI  27
MEXICO CITY, M SUNNY     59  36  41 NE5       30.29F
PHOENIX, AZ    CLOUDY    57  54  89 CALM      29.84R
PORTLAND, OR   FOG       33  33 100 W3        30.25S VSB 1/8
RENO, NV       SUNNY     32  26  78 CALM      30.23R
SALT LAKE CITY PTSUNNY   38  30  73 NW3       30.03R
SAN DIEGO, CA  PTSUNNY   60  53  77 S3        29.93R
SAN FRANCISCO, MOSUNNY   62  44  51 NE3       29.98R
SAN JOSE, CA   SUNNY     58  33  39 NW8       29.97R
SEATTLE, WA    FOG       39  38  96 NE6       30.24S VSB 1/8 WCI  35
TIJUANA, MEX   CLOUDY    55  48  76 E3        29.93R

$$

STATION/POSITION TIME  TEMP    WIND        PRES    VSBY  WAVE
                       AIR SEA DIR/SP/G                  HT/PER
                 (UTC) (F)     (DEG/KT/KT) (MB)    (MI)  (FT/S)
POINT ARGUELLO B NOT AVBL
WEST SANTA BARBA 1700   57 60   10/  8/ 12 1012.5R         7/15
POINT CONCEPTION NOT AVBL
EAST SANTA BARBA NOT AVBL
SANTA MONICA BAY 1700   62 62   CALM  /  2 1013.2R         4/16



USA.gov is the U.S. government's official web portal to all federal, state and local government web resources and services.